HUTR11 YWLM-YWLM

Flight info

Callsign HUTR11
Flight time 1h 7m
Altitude 36000
Route LIMLO DCT URKIX H536 OMLAV Q15 WOL H65 LEECE/N0457F370 DCT LGGS DCT HST DCT GGV DCT CB DCT RCSE DCT LGDA DCT GLEN DCT 351829S1490728E 351726S1490824E 351654S1490853E DCT LGGN DCT CULIN Y59 TESAT H252 EKIPU DCT WLM
Aircraft F35/M-SDFGHIM1RWXY/H

Departure

Time 2026-04-25 07:23
Airport Newcastle Airport (YWLM)

Arrival

Time 2026-04-25 08:31
Airport Newcastle Airport (YWLM)
Time Latitude Longitude Altitude Speed Heading
2026-04-25 07:11 -32.79043 151.83842 31 ft 0 kts 54°
2026-04-25 07:19 -32.79030 151.83863 31 ft 0 kts 56°
2026-04-25 07:19 -32.79045 151.83879 31 ft 8 kts 153°
2026-04-25 07:19 -32.79104 151.83823 31 ft 18 kts 234°
2026-04-25 07:20 -32.79184 151.83718 31 ft 17 kts 221°
2026-04-25 07:20 -32.79268 151.83635 31 ft 15 kts 220°
2026-04-25 07:20 -32.79349 151.83555 29 ft 16 kts 220°
2026-04-25 07:20 -32.79368 151.83461 28 ft 14 kts 311°
2026-04-25 07:21 -32.79284 151.83349 30 ft 18 kts 309°
2026-04-25 07:21 -32.79212 151.83244 32 ft 15 kts 309°
2026-04-25 07:21 -32.79144 151.83151 32 ft 15 kts 311°
2026-04-25 07:21 -32.79080 151.83061 33 ft 16 kts 310°
2026-04-25 07:22 -32.79001 151.82950 31 ft 23 kts 309°
2026-04-25 07:22 -32.78879 151.82779 30 ft 28 kts 310°
2026-04-25 07:22 -32.78754 151.82606 28 ft 27 kts 311°
2026-04-25 07:22 -32.78635 151.82438 28 ft 23 kts 305°
2026-04-25 07:23 -32.78693 151.82297 27 ft 18 kts 221°
2026-04-25 07:23 -32.78861 151.82467 24 ft 113 kts 130°
2026-04-25 07:23 -32.79727 151.83688 357 ft 256 kts 128°
2026-04-25 07:23 -32.81203 151.85617 1743 ft 373 kts 137°
2026-04-25 07:24 -32.83477 151.87610 3426 ft 385 kts 146°
2026-04-25 07:24 -32.85649 151.88683 4782 ft 293 kts 174°
2026-04-25 07:24 -32.87381 151.88227 6291 ft 268 kts 213°
2026-04-25 07:24 -32.88860 151.86806 7935 ft 273 kts 218°
2026-04-25 07:25 -32.90352 151.85365 9810 ft 279 kts 217°
2026-04-25 07:25 -32.92109 151.84250 11764 ft 314 kts 184°
2026-04-25 07:25 -32.94688 151.84181 14324 ft 419 kts 176°
2026-04-25 07:25 -32.97567 151.84656 15866 ft 423 kts 167°
2026-04-25 07:26 -33.00509 151.85072 17656 ft 430 kts 176°
2026-04-25 07:26 -33.03534 151.85109 19589 ft 445 kts 180°
2026-04-25 07:26 -33.06662 151.84987 21662 ft 454 kts 179°
2026-04-25 07:26 -33.09891 151.84934 23857 ft 474 kts 180°
2026-04-25 07:27 -33.13203 151.84828 25398 ft 478 kts 177°
2026-04-25 07:27 -33.16536 151.85286 26991 ft 487 kts 167°
2026-04-25 07:27 -33.19896 151.86044 28687 ft 495 kts 169°
2026-04-25 07:27 -33.23388 151.86615 29699 ft 510 kts 173°
2026-04-25 07:28 -33.26876 151.86992 30531 ft 511 kts 175°
2026-04-25 07:28 -33.30446 151.87203 31325 ft 517 kts 176°
2026-04-25 07:28 -33.34059 151.87491 32118 ft 519 kts 175°
2026-04-25 07:28 -33.37692 151.87834 32982 ft 527 kts 175°
2026-04-25 07:29 -33.41361 151.87602 33793 ft 537 kts 196°
2026-04-25 07:29 -33.44764 151.85650 33699 ft 546 kts 210°
2026-04-25 07:29 -33.47864 151.83046 33427 ft 527 kts 216°
2026-04-25 07:29 -33.50726 151.80483 33368 ft 513 kts 213°
2026-04-25 07:30 -33.56612 151.75631 33355 ft 517 kts 210°
2026-04-25 07:30 -33.59691 151.73435 33868 ft 509 kts 207°
2026-04-25 07:30 -33.62799 151.71323 34679 ft 513 kts 211°
2026-04-25 07:31 -33.65723 151.68881 35411 ft 512 kts 215°
2026-04-25 07:31 -33.68538 151.66302 35989 ft 514 kts 215°
2026-04-25 07:31 -33.71462 151.63833 36161 ft 517 kts 211°
2026-04-25 07:31 -33.74276 151.61579 36136 ft 511 kts 213°
2026-04-25 07:32 -33.77273 151.58885 36299 ft 513 kts 217°
2026-04-25 07:32 -33.80195 151.56395 36143 ft 512 kts 207°
2026-04-25 07:32 -33.83319 151.54370 36247 ft 509 kts 206°
2026-04-25 07:32 -33.86440 151.52311 36330 ft 511 kts 206°
2026-04-25 07:33 -33.92605 151.48120 36360 ft 511 kts 209°
2026-04-25 07:33 -33.98572 151.43446 36357 ft 513 kts 217°
2026-04-25 07:34 -34.04215 151.38151 36356 ft 511 kts 210°
2026-04-25 07:34 -34.10333 151.33752 36354 ft 512 kts 208°
2026-04-25 07:35 -34.16565 151.29705 36360 ft 510 kts 208°
2026-04-25 07:35 -34.22437 151.24827 36372 ft 513 kts 213°
2026-04-25 07:36 -34.28319 151.19921 36361 ft 513 kts 214°
2026-04-25 07:36 -34.34043 151.14828 36360 ft 513 kts 217°
2026-04-25 07:37 -34.36650 151.11874 36380 ft 516 kts 229°
2026-04-25 07:37 -34.38690 151.08267 36390 ft 520 kts 236°
2026-04-25 07:37 -34.42592 151.00965 36364 ft 518 kts 233°
2026-04-25 07:38 -34.47070 150.94169 36368 ft 515 kts 225°
2026-04-25 07:38 -34.51768 150.87553 36365 ft 517 kts 229°
2026-04-25 07:39 -34.56120 150.80601 36364 ft 517 kts 233°
2026-04-25 07:39 -34.59973 150.73187 36357 ft 519 kts 238°
2026-04-25 07:40 -34.63759 150.65786 36358 ft 517 kts 233°
2026-04-25 07:40 -34.65836 150.62203 36084 ft 523 kts 233°
2026-04-25 07:40 -34.67996 150.58633 35078 ft 524 kts 231°
2026-04-25 07:41 -34.70207 150.55120 34021 ft 524 kts 230°
2026-04-25 07:41 -34.72496 150.51632 32825 ft 527 kts 230°
2026-04-25 07:41 -34.74775 150.48140 31696 ft 530 kts 231°
2026-04-25 07:41 -34.77007 150.44538 30611 ft 532 kts 233°
2026-04-25 07:42 -34.79167 150.40978 29434 ft 528 kts 233°
2026-04-25 07:42 -34.81177 150.37305 28273 ft 517 kts 236°
2026-04-25 07:42 -34.83130 150.33628 27157 ft 510 kts 236°
2026-04-25 07:42 -34.85161 150.30112 26100 ft 504 kts 233°
2026-04-25 07:43 -34.87182 150.26728 24231 ft 494 kts 233°
2026-04-25 07:43 -34.89192 150.23410 22111 ft 478 kts 233°
2026-04-25 07:43 -34.91116 150.20183 20089 ft 462 kts 235°
2026-04-25 07:43 -34.92904 150.16995 18274 ft 450 kts 235°
2026-04-25 07:44 -34.94731 150.13939 16445 ft 438 kts 233°
2026-04-25 07:44 -34.96517 150.10976 14846 ft 427 kts 234°
2026-04-25 07:44 -34.98232 150.08115 13816 ft 422 kts 234°
2026-04-25 07:44 -34.99938 150.05212 12942 ft 415 kts 234°
2026-04-25 07:45 -35.01616 150.02306 13036 ft 417 kts 236°
2026-04-25 07:45 -35.03255 149.99337 13075 ft 419 kts 236°
2026-04-25 07:45 -35.04840 149.96324 13109 ft 420 kts 244°
2026-04-25 07:45 -35.05812 149.92957 12512 ft 417 kts 257°
2026-04-25 07:46 -35.06599 149.89594 11727 ft 415 kts 253°
2026-04-25 07:46 -35.07421 149.86249 10945 ft 408 kts 253°
2026-04-25 07:46 -35.08334 149.82966 10155 ft 405 kts 250°
2026-04-25 07:46 -35.09295 149.79789 9343 ft 399 kts 249°
2026-04-25 07:47 -35.10299 149.76640 8564 ft 395 kts 248°
2026-04-25 07:47 -35.11345 149.73558 7890 ft 389 kts 247°
2026-04-25 07:47 -35.12437 149.70523 7422 ft 387 kts 246°
2026-04-25 07:47 -35.13519 149.67506 6974 ft 387 kts 246°
2026-04-25 07:48 -35.14479 149.64445 6566 ft 385 kts 252°
2026-04-25 07:48 -35.15300 149.61388 6162 ft 383 kts 252°
2026-04-25 07:48 -35.16127 149.58292 6091 ft 382 kts 252°
2026-04-25 07:48 -35.16958 149.55208 6073 ft 383 kts 252°
2026-04-25 07:49 -35.17770 149.52112 6059 ft 383 kts 252°
2026-04-25 07:49 -35.18631 149.49031 6051 ft 382 kts 251°
2026-04-25 07:49 -35.19529 149.45965 6042 ft 382 kts 249°
2026-04-25 07:49 -35.20735 149.43094 6152 ft 381 kts 226°
2026-04-25 07:50 -35.22865 149.41775 6253 ft 328 kts 185°
2026-04-25 07:50 -35.25003 149.41999 6033 ft 294 kts 173°
2026-04-25 07:50 -35.26324 149.42212 5632 ft 283 kts 172°
2026-04-25 07:50 -35.28852 149.42727 4844 ft 272 kts 171°
2026-04-25 07:51 -35.30701 149.43115 4374 ft 268 kts 172°
2026-04-25 07:51 -35.32573 149.43422 4384 ft 270 kts 172°
2026-04-25 07:51 -35.34444 149.43785 4390 ft 270 kts 171°
2026-04-25 07:51 -35.36279 149.44191 4417 ft 271 kts 169°
2026-04-25 07:52 -35.38144 149.44588 4441 ft 271 kts 173°
2026-04-25 07:52 -35.39959 149.44155 4425 ft 270 kts 212°
2026-04-25 07:52 -35.41344 149.42637 4438 ft 267 kts 234°
2026-04-25 07:52 -35.42060 149.40573 4472 ft 266 kts 265°
2026-04-25 07:53 -35.42124 149.38295 4498 ft 266 kts 268°
2026-04-25 07:53 -35.42202 149.36800 4522 ft 265 kts 268°
2026-04-25 07:53 -35.42283 149.33801 4546 ft 265 kts 272°
2026-04-25 07:53 -35.42248 149.31535 4527 ft 265 kts 271°
2026-04-25 07:54 -35.42223 149.29266 4508 ft 266 kts 272°
2026-04-25 07:54 -35.42204 149.27768 4495 ft 266 kts 271°
2026-04-25 07:54 -35.42191 149.25505 4478 ft 265 kts 271°
2026-04-25 07:54 -35.42189 149.23233 4464 ft 265 kts 270°
2026-04-25 07:55 -35.41877 149.21033 4210 ft 267 kts 301°
2026-04-25 07:55 -35.39910 149.19498 3468 ft 259 kts 349°
2026-04-25 07:55 -35.38715 149.19432 3234 ft 260 kts
2026-04-25 07:55 -35.36918 149.19449 2882 ft 258 kts
2026-04-25 07:56 -35.35130 149.19454 2508 ft 253 kts 360°
2026-04-25 07:56 -35.33361 149.19448 2401 ft 257 kts
2026-04-25 07:56 -35.31589 149.19445 2230 ft 254 kts 360°
2026-04-25 07:56 -35.29825 149.19442 2168 ft 252 kts
2026-04-25 07:57 -35.28136 149.19158 2418 ft 255 kts 336°
2026-04-25 07:57 -35.26664 149.17921 2808 ft 255 kts 314°
2026-04-25 07:57 -35.25551 149.16176 2790 ft 258 kts 307°
2026-04-25 07:57 -35.24638 149.14274 2687 ft 261 kts 296°
2026-04-25 07:58 -35.24133 149.12159 2714 ft 259 kts 283°
2026-04-25 07:58 -35.23709 149.10001 2754 ft 259 kts 284°
2026-04-25 07:58 -35.23481 149.07871 2963 ft 252 kts 251°
2026-04-25 07:58 -35.24853 149.06549 3587 ft 270 kts 188°
2026-04-25 07:59 -35.26625 149.07242 3086 ft 273 kts 153°
2026-04-25 07:59 -35.28282 149.08293 3096 ft 266 kts 152°
2026-04-25 07:59 -35.29923 149.09392 2948 ft 266 kts 152°
2026-04-25 07:59 -35.31036 149.11003 2658 ft 266 kts 88°
2026-04-25 08:00 -35.30259 149.12911 2273 ft 259 kts 36°
2026-04-25 08:00 -35.28831 149.14199 2176 ft 252 kts 36°
2026-04-25 08:00 -35.27139 149.15677 3254 ft 363 kts 34°
2026-04-25 08:00 -35.25043 149.17439 4984 ft 370 kts 33°
2026-04-25 08:01 -35.22887 149.19194 6857 ft 374 kts 33°
2026-04-25 08:01 -35.20694 149.20946 8813 ft 388 kts 33°
2026-04-25 08:01 -35.18409 149.22809 10972 ft 401 kts 33°
2026-04-25 08:01 -35.16077 149.24761 13291 ft 409 kts 33°
2026-04-25 08:02 -35.13641 149.26752 15634 ft 430 kts 33°
2026-04-25 08:02 -35.11146 149.28732 17815 ft 437 kts 33°
2026-04-25 08:02 -35.08548 149.30804 20153 ft 451 kts 32°
2026-04-25 08:02 -35.05884 149.33001 22565 ft 471 kts 34°
2026-04-25 08:03 -35.03111 149.35255 25124 ft 486 kts 34°
2026-04-25 08:03 -35.00183 149.37581 27600 ft 513 kts 26°
2026-04-25 08:03 -34.96744 149.38791 30303 ft 534 kts
2026-04-25 08:03 -34.92952 149.38989 32896 ft 548 kts
2026-04-25 08:04 -34.89382 149.39063 35223 ft 463 kts 359°
2026-04-25 08:04 -34.86508 149.39035 36956 ft 362 kts 358°
2026-04-25 08:04 -34.84344 149.38978 38204 ft 255 kts 355°
2026-04-25 08:04 -34.82681 149.38965 38599 ft 247 kts 358°
2026-04-25 08:05 -34.80740 149.38960 37904 ft 313 kts 358°
2026-04-25 08:05 -34.78235 149.38942 36837 ft 414 kts 358°
2026-04-25 08:05 -34.75226 149.39883 36532 ft 491 kts 34°
2026-04-25 08:05 -34.72620 149.42986 36870 ft 545 kts 55°
2026-04-25 08:06 -34.68743 149.50887 36914 ft 558 kts 61°
2026-04-25 08:06 -34.64895 149.59209 36948 ft 571 kts 62°
2026-04-25 08:07 -34.61055 149.67721 36839 ft 577 kts 62°
2026-04-25 08:07 -34.59097 149.71996 36635 ft 577 kts 64°
2026-04-25 08:07 -34.57286 149.76349 36499 ft 577 kts 65°
2026-04-25 08:08 -34.53811 149.85100 36372 ft 578 kts 65°
2026-04-25 08:08 -34.50151 149.93768 36583 ft 577 kts 65°
2026-04-25 08:09 -34.48315 149.98112 36937 ft 577 kts 63°
2026-04-25 08:09 -34.46473 150.02447 36850 ft 577 kts 64°
2026-04-25 08:09 -34.42693 150.10946 36863 ft 576 kts 63°
2026-04-25 08:10 -34.38816 150.19468 36595 ft 577 kts 62°
2026-04-25 08:10 -34.34800 150.27907 36855 ft 576 kts 63°
2026-04-25 08:11 -34.32881 150.32108 37077 ft 576 kts 63°
2026-04-25 08:11 -34.31013 150.36393 37119 ft 576 kts 64°
2026-04-25 08:11 -34.29167 150.40610 37107 ft 543 kts 63°
2026-04-25 08:11 -34.27346 150.44520 37128 ft 534 kts 63°
2026-04-25 08:12 -34.25556 150.48476 36999 ft 538 kts 64°
2026-04-25 08:12 -34.23813 150.52473 37044 ft 536 kts 65°
2026-04-25 08:12 -34.20401 150.60502 37133 ft 538 kts 63°
2026-04-25 08:13 -34.16720 150.68363 37019 ft 538 kts 63°
2026-04-25 08:14 -34.11187 150.80185 36381 ft 545 kts 62°
2026-04-25 08:14 -34.09303 150.84075 35224 ft 539 kts 64°
2026-04-25 08:14 -34.07530 150.88065 34082 ft 540 kts 63°
2026-04-25 08:14 -34.05596 150.91984 32845 ft 544 kts 58°
2026-04-25 08:15 -34.03551 150.95857 31680 ft 546 kts 61°
2026-04-25 08:15 -34.01666 150.99783 30603 ft 549 kts 62°
2026-04-25 08:15 -33.99804 151.03813 29392 ft 550 kts 63°
2026-04-25 08:15 -33.97999 151.07876 29239 ft 548 kts 64°
2026-04-25 08:16 -33.96179 151.11946 29308 ft 549 kts 63°
2026-04-25 08:16 -33.94408 151.16013 29584 ft 549 kts 65°
2026-04-25 08:16 -33.92640 151.20070 29862 ft 538 kts 63°
2026-04-25 08:16 -33.90672 151.23881 30108 ft 539 kts 54°
2026-04-25 08:17 -33.88219 151.27330 30184 ft 542 kts 50°
2026-04-25 08:17 -33.83168 151.33989 30119 ft 547 kts 49°
2026-04-25 08:18 -33.78255 151.40917 30136 ft 544 kts 52°
2026-04-25 08:18 -33.72870 151.47401 30213 ft 545 kts 53°
2026-04-25 08:19 -33.68390 151.54683 30041 ft 542 kts 56°
2026-04-25 08:19 -33.66083 151.58263 29931 ft 543 kts 51°
2026-04-25 08:19 -33.63298 151.61336 29716 ft 548 kts 32°
2026-04-25 08:19 -33.59712 151.62774 27899 ft 537 kts 14°
2026-04-25 08:20 -33.56139 151.63690 25874 ft 511 kts 14°
2026-04-25 08:20 -33.52708 151.64528 24028 ft 494 kts 12°
2026-04-25 08:20 -33.49344 151.65105 22062 ft 480 kts
2026-04-25 08:20 -33.46151 151.65831 20938 ft 474 kts 15°
2026-04-25 08:21 -33.42952 151.66721 19792 ft 467 kts 14°
2026-04-25 08:21 -33.39820 151.67518 18201 ft 452 kts 12°
2026-04-25 08:21 -33.36717 151.67975 16589 ft 445 kts
2026-04-25 08:21 -33.33633 151.67940 15110 ft 438 kts
2026-04-25 08:22 -33.30790 151.68844 13623 ft 426 kts 23°
2026-04-25 08:22 -33.28043 151.70018 11982 ft 414 kts 26°
2026-04-25 08:22 -33.25449 151.71475 10866 ft 409 kts 25°
2026-04-25 08:22 -33.22843 151.72747 9795 ft 401 kts 20°
2026-04-25 08:23 -33.20172 151.73662 8926 ft 399 kts 15°
2026-04-25 08:23 -33.17505 151.74445 8149 ft 392 kts 15°
2026-04-25 08:23 -33.14897 151.75192 7400 ft 388 kts 13°
2026-04-25 08:23 -33.12253 151.75755 6678 ft 382 kts 11°
2026-04-25 08:24 -33.09640 151.76344 6109 ft 379 kts 12°
2026-04-25 08:24 -33.07068 151.76999 5576 ft 377 kts 14°
2026-04-25 08:24 -33.04514 151.77663 5049 ft 374 kts 12°
2026-04-25 08:24 -33.01967 151.78229 4459 ft 370 kts 12°
2026-04-25 08:25 -32.99455 151.78757 3791 ft 365 kts 10°
2026-04-25 08:25 -32.96961 151.79262 3133 ft 360 kts 12°
2026-04-25 08:25 -32.94512 151.79745 2479 ft 353 kts
2026-04-25 08:25 -32.92099 151.79609 1856 ft 351 kts 340°
2026-04-25 08:26 -32.90230 151.77737 1792 ft 363 kts 313°
2026-04-25 08:26 -32.88566 151.75457 1804 ft 364 kts 313°
2026-04-25 08:26 -32.86877 151.73203 1810 ft 364 kts 313°
2026-04-25 08:26 -32.85187 151.70960 1802 ft 363 kts 319°
2026-04-25 08:27 -32.83303 151.68983 1812 ft 362 kts 322°
2026-04-25 08:27 -32.81080 151.67847 2186 ft 353 kts
2026-04-25 08:27 -32.78846 151.68889 2267 ft 350 kts 44°
2026-04-25 08:27 -32.77656 151.71356 2256 ft 343 kts 68°
2026-04-25 08:28 -32.76767 151.74021 2348 ft 348 kts 69°
2026-04-25 08:28 -32.76045 151.76767 2307 ft 349 kts 83°
2026-04-25 08:28 -32.76522 151.79495 1324 ft 348 kts 125°
2026-04-25 08:28 -32.78108 151.81709 656 ft 351 kts 130°
2026-04-25 08:29 -32.80010 151.83918 1101 ft 363 kts 191°
2026-04-25 08:29 -32.80661 151.82105 1319 ft 214 kts 309°
2026-04-25 08:29 -32.79825 151.81042 1297 ft 156 kts 317°
2026-04-25 08:29 -32.79091 151.80088 1254 ft 153 kts 325°
2026-04-25 08:30 -32.78157 151.80068 792 ft 146 kts 44°
2026-04-25 08:30 -32.77970 151.81126 423 ft 132 kts 116°
2026-04-25 08:30 -32.78555 151.82038 107 ft 138 kts 128°
2026-04-25 08:30 -32.79102 151.82812 30 ft 103 kts 128°
2026-04-25 08:31 -32.79487 151.83341 27 ft 68 kts 130°
2026-04-25 08:31 -32.79724 151.83684 30 ft 46 kts 126°
2026-04-25 08:31 -32.79832 151.83895 32 ft 23 kts 71°
2026-04-25 08:31 -32.79773 151.83990 32 ft 10 kts 25°
2026-04-25 08:32 -32.79718 151.83950 31 ft 11 kts 310°
2026-04-25 08:32 -32.79673 151.83888 31 ft 10 kts 311°
2026-04-25 08:32 -32.79627 151.83824 31 ft 11 kts 310°
2026-04-25 08:32 -32.79572 151.83749 29 ft 15 kts 311°
2026-04-25 08:33 -32.79467 151.83601 28 ft 24 kts 309°
2026-04-25 08:33 -32.79378 151.83477 28 ft 9 kts 311°
2026-04-25 08:33 -32.79317 151.83506 29 ft 16 kts 40°
2026-04-25 08:33 -32.79226 151.83598 31 ft 21 kts 40°
2026-04-25 08:34 -32.79111 151.83714 32 ft 21 kts 40°
2026-04-25 08:34 -32.79058 151.83719 31 ft 5 kts 324°
2026-04-25 08:34 -32.78998 151.83717 31 ft 11 kts 49°
2026-04-25 08:34 -32.79029 151.83776 31 ft 9 kts 142°
2026-04-25 08:35 -32.79058 151.83816 31 ft 3 kts 81°
2026-04-25 08:35 -32.79052 151.83828 31 ft 2 kts 56°
2026-04-25 08:35 -32.79043 151.83843 31 ft 1 kts 54°